Regional Weather Roundup
Issued by NWS

Home | Current Version | Previous Version | Text Only | Print | Product List | Glossary On
Versions: 1 2 3 4 5 6 7 8 9 10 11 12 13 14 15 16 17 18 19 20 21 22 23 24 25 26 27 28 29 30 31 32 33 34 35 36 37 38 39 40 41 42 43 44 45 46 47 48 49 50
000
ASUS43 KMKX 241100
RWRWI

WISCONSIN REGIONAL WEATHER ROUNDUP
NATIONAL WEATHER SERVICE MILWAUKEE/SULLIVAN WI
600 AM CDT MON JUL 24 2017

NOTE: "FAIR" INDICATES FEW OR NO CLOUDS BELOW 12,000 FEET WITH NO
SIGNIFICANT WEATHER AND/OR OBSTRUCTIONS TO VISIBILITY.

WIZ001-002-006>008-014>016-023>028-241200-
NORTHWEST WISCONSIN

CITY           SKY/WX    TMP DP  RH WIND       PRES   REMARKS
SUPERIOR ARPT  NOT AVBL
ASHLAND        FOG       55  55 100 SE3       30.10R VSB 1
HAYWARD        FOG       52  51  97 NE5       30.09S VSB 1/4
SIREN          FOG       53  52  98 E3        30.08S VSB 1/4
CUMBERLAND     PTCLDY    52  52 100 NE3       30.08S FOG
RICE LAKE      RAIN      54  53  97 N3        30.09S VSB<1/4
CHETEK         CLOUDY    52  52 100 CALM      30.08R
LADYSMITH      CLOUDY    55  54  97 CALM      30.10R FOG
EAU CLAIRE     FOG       54  52  94 NE6       30.06R VSB 1/4
MENOMONIE      CLEAR     57  55  95 CALM      30.06S
NEW RICHMOND   CLEAR     53  53 100 CALM      30.07R FOG
OSCEOLA        PTCLDY    51  51 100 CALM      30.10R
$$

WIZ003>005-009-010-017-018-241200-
NORTH CENTRAL WISCONSIN

CITY           SKY/WX    TMP DP  RH WIND       PRES   REMARKS
MANITOWISH WTR FOG       52  52 100 NE3       30.10R VSB 1
ARBOR VITAE    CLOUDY    55  53  95 CALM      30.09R FOG
WOODRUFF       CLOUDY    55  53  95 CALM      30.09R FOG
RHINELANDER    FOG       52  52 100 N3        30.10R VSB 3/4
EAGLE RIVER    FOG       49  49 100 CALM      30.09S VSB<1/4
LAND O LAKES   FOG       48  48 100 CALM      30.11R VSB 1/4
PHILLIPS       CLOUDY    52  52 100 CALM      30.09R FOG
TOMAHAWK       FOG       48  47  97 CALM      30.09R VSB 1/2
MEDFORD        CLOUDY    53  52  97 E6        30.08R
MERRILL        NOT AVBL
$$

WIZ029-030-035-036-043>047-241200-
CENTRAL WISCONSIN

CITY           SKY/WX    TMP DP  RH WIND       PRES   REMARKS
WAUSAU         CLOUDY    56  53  90 E6        30.07
MOSINEE        CLOUDY    55  54  94 NE3       30.09R
MARSHFIELD     CLOUDY    57  53  86 E8        30.07R
STEVENS POINT  CLOUDY    57  54  90 NE5       30.06R
WAUPACA        CLOUDY    62  56  81 CALM      30.05R
WAUTOMA        CLOUDY    61  56  83 NE6       30.05
WISC RAPIDS    CLOUDY    60  54  80 CALM      30.07
CAMP DOUGLAS   NOT AVBL
$$

WIZ011>013-019>022-031-037>040-048>050-241200-
NORTHEAST WISCONSIN

CITY           SKY/WX    TMP DP  RH WIND       PRES   REMARKS
ANTIGO         CLOUDY    53  53  97 NE7       30.08R
SHAWANO        CLOUDY    61  55  80 NE12      30.06R
OCONTO         PTCLDY    57  54  88 N6        30.04S
STURGEON BAY     N/A     59  55  87 MISG        N/A
GREEN BAY      CLOUDY    60  57  89 N10       30.05R
MANITOWOC      NOT AVBL
APPLETON       CLOUDY    61  54  77 N10       30.04R
CLINTONVILLE   CLOUDY    59  54  82 N6        30.06R
OSHKOSH        CLOUDY    61  57  87 N8        30.03R
$$

WIZ032>034-041-042-053>061-241200-
SOUTHWEST WISCONSIN

CITY           SKY/WX    TMP DP  RH WIND       PRES   REMARKS
LA CROSSE      CLEAR     61  56  83 N5        30.04R
SPARTA         CLOUDY    55  54  97 N5        30.06R
VIROQUA        CLEAR     56  56 100 CALM      30.05R
BOSCOBEL       CLEAR     60  56  86 E3        30.03R
PRAIRIE DU CHI CLEAR     62  55  80 N3        30.01R
PLATTEVILLE    CLEAR     59  59 100 NE6       30.02R
$$

WIZ056-057-062-063-064-067-068-241200-
SOUTH CENTRAL WISCONSIN

CITY           SKY/WX    TMP DP  RH WIND       PRES   REMARKS
REEDSBURG      CLOUDY    61  56  85 NE6       30.04R
BARABOO/DELLS  CLOUDY    60  54  78 NE3       30.04R
LONE ROCK      CLEAR     60  56  86 NE5       30.03
MINERAL POINT  CLEAR     59  59 100 N3        30.02R
MADISON        MOCLDY    60  57  89 N6        30.02R
MIDDLETON      MOCLDY    59  59 100 CALM      30.02R
WATERTOWN      CLOUDY    63  60  90 N7        30.01R
MONROE         CLEAR     57  55  94 N7        30.00S FOG
JANESVILLE     CLEAR     63  59  88 NE3       30.00R
$$

WIZ051-052-058>065-066-070>072-241200-
SOUTHEAST WISCONSIN

CITY           SKY/WX    TMP DP  RH WIND       PRES   REMARKS
MILWAUKEE      DRIZZLE   64  61  90 N13       30.00R
WAUKESHA       CLOUDY    61  57  88 N8        30.02R
MILWAUKEE/TIMM CLOUDY    63  55  77 N9        30.01R
RACINE         CLOUDY    65  62  90 N15       30.00R
KENOSHA        CLOUDY    63  59  87 N7        29.99R
FOND DU LAC    CLOUDY    64  55  72 NE10      30.04R
SHEBOYGAN      CLOUDY    62  58  86 N8        30.01S
WEST BEND      CLOUDY    61  59  94 N7        30.01R
JUNEAU         CLOUDY    61  57  88 N5        30.03R
$$

LSZ147-162-241200-
LAKE SUPERIOR

STATION/POSITION TIME  TEMP    WIND        PRES    WAVE
                       AIR SEA DIR/SP/G            HT/PER
                 (UTC) (F)     (DEG/KT/KT) (MB)    (FT/S)
W MID LAKE BUOY  0950   49 48  230/  4/  6 1018.3R   1
DEVILS ISLAND    1000   54     190/  6/  7 1018.8R
SAXON HARBOR     1040   55     190/  1/  3 1018.6R
$$

LMZ867-665-643>646-241200-
LAKE MICHIGAN

STATION/POSITION TIME  TEMP    WIND        PRES    WAVE
                       AIR SEA DIR/SP/G            HT/PER
                 (UTC) (F)     (DEG/KT/KT) (MB)    (FT/S)
CHAMBERS ISLAND  1040   60     330/ 11/ 14 1016.9R
S GREEN BAY BUOY 1030   62 72  350/ 14/ 17 1016.9R
N MID LAKE BUOY  0950   62 66   10/ 14/ 16 1016.5R   3/ 5
NORTHPORT PIER   1040   61     360/ 12/ 15 1017.3R
KEWAUNEE LAKESHO 1030   62     360/  4/  8 1016.0R
SHEBOYGAN LAKESH 1000   64      20/ 19/ 20 1015.2R
PORT WASHINGTON  1030   64     360/  5/ 10 1016.6R
ATWATER BUOY     0839   65 67   10/ 16/ 19 1014.2R
MILWAUKEE LAKESH 1030   64     360/ 12/ 15   N/A
S MID LAKE BUOY  0950   67 69   10/ 17/ 21 1013.3R   5/ 6
KENOSHA   LAKESH 1000   65     350/  9/ 11 1014.6
$$

TC  - TEMPERATURE IN CELSIUS
VSB - VISIBILITY IN STATUTE MILES
WCI - WIND CHILL INDEX
HX  - HEAT INDEX





USA.gov is the U.S. government's official web portal to all federal, state and local government web resources and services.